COSMOS 1275 DEB, 12673

Orbit data source: Space-Track

COSMOS 1275 DEB, 12673 is space debris in LEO originally from a launch on Thu, 04 Jun 1981 UTC launched from the Plesetsk Missile And Space Complex (PKMTR). Debris objects in space refer to the collection of defunct objects orbiting the Earth. Examples of debris include non-operational satellites, rocket bodies, and fragments generated from explosions, collisions, or faulty payload assembly.

Loading next visibility...
Identifier
12673, 1981-053AD
Orbit
LEO
Last TLE update
20 hours ago
Origin
Manufacturer
Unknown
Mission
Spacecraft
Bus & Motor
Unknown
Mass
Unknown
Launch date (UTC)
1981-06-04 (44 years ago)
Launch vehicle
Unknown
Launch site
Plesetsk Missile And Space Complex (PKMTR)
Object type
Payload
Rocket body
Debris
Shape & HBR
Unknown
Radar Cross Section
Medium (>0.1 m² and <1 m²)

Expand to show TLE details & history

TLE from 20 hours ago
0 COSMOS 1275 DEB
1 12673U 81053AD  25128.42303332  .00003000  00000-0  16719-2 0  9993
2 12673  82.8484 104.5878 0038360 333.2214 193.8476 14.10304555217800
Epoch: 2025-05-08T10:09Z
Definitive object data (Epoch: 2025-05-08T10:09:10.078Z)
Latitude
12.89487°
Longitude
-95.83534°
Altitude
887.488 km
Speed
7.396 km/s
True Right ascension
18h 51m 48s
True Declination
12° 49' 18"
Sunlit
Object was in daylight at TLE epoch
Visualization TLE readout
Latitude
78.49506°
Longitude
122.95892°
Altitude
881.008 km
Speed
7.414 km/s
Apparent Right ascension
03h 28m 19s
Apparent Declination
32° 47' 60"
Sunlit
Object is in daylight
Visualization observer readout
Local Sidereal Time
14:19:22
Azimuth
345.013° N
Elevation
-15.553°
Doppler factor
1
Orbital elements
Apogee altitude
883.181 km
Perigee altitude
827.685 km
Semi-major axis
7,233.57 km
Eccentricity
0.003836
Inclination
82.8484°
RAAN
104.5878°
Arg. of periapsis
333.2214°
True anomaly
193.74288°
Mean anomaly
193.8476°
Eccentric anomaly
193.79519°
Mean motion
3.52788 °/min
BSTAR
0.0016719
Orbital period
102.04 mins
Loading maneuver chart data...
Loading SW <> Apogee altitude chart data...
Loading historical data...
Loading historical data...
Loading historical data...
Loading historical data...
Loading historical data...
Loading historical data...
Loading historical data...

COSMOS 1275 DEB Visibility forecast

Observer location: undefined°, undefined°

Span
Click to sort rows by Start time (UTC) header in descending order
Start Az.
Max El. time (UTC)
Max El. Az.
Max El.
End time (UTC)
End Az.
10 mins2025-05-09 09:46:34.499Z6.178° NNE2025-05-09 09:51:34.499Z83.71° E37.283°2025-05-09 09:56:34.499Z152.384° SSE
6 mins2025-05-09 11:31:34.499Z305.711° NW2025-05-09 11:33:34.499Z279.855° WNW19.737°2025-05-09 11:37:34.499Z232.244° WSW
9 mins2025-05-09 22:56:34.499Z180.884° SSW2025-05-09 23:00:34.499Z113.093° SE44.654°2025-05-09 23:05:34.499Z9.491° NNE
|